This is the latest recevied weather packets stored in our database for station/object PP5CFL-2. If no packets are shown the sender has not sent any weather packets the latest 10 day(s).
| Time | Temp. | Humidity | Pressure | Rain* | Wind** | Luminosity | Snow |
|---|---|---|---|---|---|---|---|
| 1788669120 | 15.56° C | 66% | 1023.6 hPa | - | - | - | - |
| 1788668820 | 15.56° C | 68% | 1023.6 hPa | - | - | - | - |
| 1788668520 | 16.11° C | 67% | 1023.6 hPa | - | - | - | - |
| 1788668220 | 16.11° C | 68% | 1023.6 hPa | - | - | - | - |
| 1788667920 | 15.56° C | 68% | 1023.4 hPa | - | - | - | - |
| 1788667620 | 15.56° C | 67% | 1023.5 hPa | - | - | - | - |
| 1788667320 | 15.56° C | 67% | 1023.4 hPa | - | - | - | - |
| 1788667020 | 15.56° C | 68% | 1023.4 hPa | - | - | - | - |
| 1788666720 | 15.56° C | 68% | 1023.5 hPa | - | - | - | - |
| 1788666420 | 15.56° C | 70% | 1023.3 hPa | - | - | - | - |
| 1788666120 | 15.56° C | 68% | 1023.2 hPa | - | - | - | - |
| 1788665820 | 15.56° C | 67% | 1022.9 hPa | - | - | - | - |
| 1788665520 | 16.11° C | 67% | 1022.8 hPa | - | - | - | - |
| 1788665220 | 16.11° C | 68% | 1022.7 hPa | - | - | - | - |
| 1788664920 | 15.56° C | 67% | 1022.8 hPa | - | - | - | - |
| 1788664620 | 16.11° C | 68% | 1022.6 hPa | - | - | - | - |
| 1788664320 | 16.11° C | 68% | 1022.6 hPa | - | - | - | - |
| 1788664020 | 16.11° C | 67% | 1022.7 hPa | - | - | - | - |
| 1788663720 | 16.11° C | 68% | 1022.7 hPa | - | - | - | - |
| 1788663420 | 16.11° C | 66% | 1022.5 hPa | - | - | - | - |
| 1788663120 | 16.67° C | 69% | 1022.5 hPa | - | - | - | - |
| 1788662820 | 16.11° C | 67% | 1022.5 hPa | - | - | - | - |
| 1788662520 | 16.11° C | 67% | 1022.5 hPa | - | - | - | - |
| 1788662220 | 16.67° C | 68% | 1022.5 hPa | - | - | - | - |
| 1788661920 | 16.11° C | 69% | 1022.4 hPa | - | - | - | - |
* Rain since midnight (hover to see other rain measurements)
** Current wind speed in m/s (hover to see current wind gust speed)